Weather History for Edwards AFB, CA

Change the Weather History Date:

Saturday, January 28, 2012

  Actual Average Record
Temperature  
Mean Temperature 46 °F -  
Max Temperature 64 °F 58 °F 66 °F (2003)
Min Temperature 27 °F 30 °F 23 °F (1999)
Degree Days  
Heating Degree Days 20    
Moisture  
Dew Point 3 °F    
Average Humidity 22    
Maximum Humidity 52    
Minimum Humidity 6    
Precipitation  
Precipitation 0.00 in - - ()
Sea Level Pressure  
Sea Level Pressure 30.36 in    
Wind  
Wind Speed 6 mph (NE)    
Max Wind Speed 18 mph    
Max Gust Speed 23 mph    
Visibility 10 miles    
Events      
Averages and records for this station are not official NWS values.
T = Trace of Precipitation, MM = Missing Value Source: NWS Daily Summary

Daily Weather History Graph

Daily Weather History Graph

Search for Another Location

Airport:

Trip Planner

Search our weather history database for the weather conditions in past years. The results will help you decide how hot, cold, wet, or windy it might be!

Date:

Astronomy

Jan. 28, 2012 Rise Set
Actual Time 6:53 AM PST 5:16 PM PST
Civil Twilight 6:26 AM PST 5:42 PM PST
Nautical Twilight 5:55 AM PST 6:13 PM PST
Astronomical Twilight 5:26 AM PST 6:43 PM PST
Moon 9:33 AM PST (1/28) 10:51 PM PST (1/28)
Length of Visible Light 11h 16m
Length of Day
10h 22m
Waxing Crescent, 29% of the Moon is Illuminated
Jan 28
Waxing Crescent
Jan 30
First Quarter
Feb 7
Full
Feb 14
Last Quarter
Feb 21
New

Hourly Weather History & Observations

Time (PST) Temp. Windchill Dew Point Humidity Pressure Visibility Wind Dir Wind Speed Gust Speed Precip Events Conditions
12:55 AM 36.1 °F 31.4 °F 12.7 °F 38% 30.29 in 10.0 mi NW 5.8 mph - N/A   Clear
1:55 AM 34.3 °F - 12.4 °F 40% 30.30 in 10.0 mi Calm Calm - N/A   Clear
2:55 AM 30.4 °F - 11.8 °F 46% 30.31 in 10.0 mi Calm Calm - N/A   Clear
3:55 AM 31.8 °F 27.3 °F 10.0 °F 40% 30.32 in 10.0 mi South 4.6 mph - N/A   Clear
4:55 AM 29.8 °F - 10.4 °F 44% 30.34 in 10.0 mi Calm Calm - N/A   Clear
5:55 AM 30.6 °F - 10.6 °F 43% 30.37 in 80.0 mi Calm Calm - N/A   Clear
6:55 AM 27.1 °F - 11.5 °F 52% 30.40 in 90.0 mi Calm Calm - N/A   Partly Cloudy
7:55 AM 30.2 °F - 10.2 °F 43% 30.42 in 90.0 mi Calm Calm - N/A   Partly Cloudy
8:55 AM 38.1 °F 35.7 °F 11.5 °F 33% 30.43 in 90.0 mi NW 3.5 mph - N/A   Scattered Clouds
9:55 AM 44.2 °F 41.8 °F 11.8 °F 27% 30.43 in 90.0 mi North 4.6 mph - N/A   Scattered Clouds
10:55 AM 54.7 °F - 7.3 °F 15% 30.41 in 90.0 mi ENE 11.5 mph - N/A   Partly Cloudy
11:33 AM 57.2 °F - 5.0 °F 12% 30.39 in 90.0 mi ENE 10.4 mph - N/A   Partly Cloudy
11:55 AM 57.9 °F - 3.7 °F 11% 30.39 in 90.0 mi ENE 11.5 mph - N/A   Partly Cloudy
12:55 PM 59.7 °F - 3.2 °F 10% 30.35 in 90.0 mi ENE 10.4 mph - N/A   Partly Cloudy
1:55 PM 62.8 °F - 0.7 °F 8% 30.32 in 90.0 mi ENE 13.8 mph - N/A   Scattered Clouds
2:18 PM 64.4 °F - -4.0 °F 6% 30.31 in 90.0 mi NE 15.0 mph 23.0 mph N/A   Scattered Clouds
2:55 PM 63.9 °F - -4.5 °F 6% 30.32 in 90.0 mi NE 18.4 mph - N/A   Scattered Clouds
3:08 PM 64.4 °F - -4.0 °F 6% 30.31 in 90.0 mi NE 17.3 mph - N/A   Scattered Clouds
3:55 PM 62.6 °F - -5.6 °F 6% 30.32 in 90.0 mi NNE 18.4 mph - N/A   Mostly Cloudy
4:55 PM 58.6 °F - -4.2 °F 8% 30.33 in 90.0 mi NNE 13.8 mph - N/A   Mostly Cloudy
5:55 PM 50.0 °F - -6.3 °F 10% 30.35 in 50.0 mi East 10.4 mph - N/A   Mostly Cloudy
6:55 PM 46.6 °F - -5.3 °F 11% 30.38 in 50.0 mi East 9.2 mph - N/A   Mostly Cloudy
7:55 PM 42.3 °F 37.9 °F 0.5 °F 18% 30.40 in 50.0 mi NE 6.9 mph - N/A   Mostly Cloudy
8:55 PM 41.2 °F 37.3 °F -3.8 °F 15% 30.40 in 50.0 mi NW 5.8 mph - N/A   Mostly Cloudy
9:55 PM 38.7 °F 36.3 °F -4.7 °F 16% 30.40 in 50.0 mi North 3.5 mph - N/A   Scattered Clouds
10:55 PM 38.3 °F - -3.5 °F 17% 30.38 in 10.0 mi Calm Calm - N/A   Clear
11:55 PM 33.8 °F 28.6 °F 0.5 °F 24% 30.38 in 10.0 mi North 5.8 mph - N/A   Clear